Weather History for KTIW - October, 2011

Change the Weather History Date:

Sunday, October 9, 2011

  Actual Average Record
Temperature  
Mean Temperature 53 °F -  
Max Temperature 55 °F 59 °F 77 °F (1996)
Min Temperature 51 °F 47 °F 42 °F (2013)
Degree Days  
Heating Degree Days 12    
Growing Degree Days 3 (Base 50)    
Moisture  
Dew Point 51 °F    
Average Humidity 94    
Maximum Humidity 100    
Minimum Humidity 80    
Precipitation  
Precipitation 0.11 in - - ()
Sea Level Pressure  
Sea Level Pressure 30.03 in    
Wind  
Wind Speed 3 mph (SSW)    
Max Wind Speed 7 mph    
Max Gust Speed -    
Visibility 6 miles    
Events Fog , Rain    
Averages and records for this station are not official NWS values.
T = Trace of Precipitation, MM = Missing Value Source: NWS Daily Summary

Daily Weather History Graph

Daily Weather History Graph

Search for Another Location

Airport or City:

Trip Planner

Search our weather history database for the weather conditions in past years. The results will help you decide how hot, cold, wet, or windy it might be!

Date:

Astronomy

Oct. 09, 2011 Rise Set
Actual Time 7:20 AM PDT 6:34 PM PDT
Civil Twilight 6:49 AM PDT 7:04 PM PDT
Nautical Twilight 6:13 AM PDT 7:40 PM PDT
Astronomical Twilight 5:38 AM PDT 8:15 PM PDT
Moon 5:17 PM PDT (10/9) 5:03 AM PDT (10/9)
Length of Visible Light 12h 15m
Length of Day
11h 14m
Waxing Gibbous, 95% of the Moon is Illuminated
Oct 9
Waxing Gibbous
Oct 11
Full
Oct 19
Last Quarter
Oct 26
New
Nov 2
First Quarter

Hourly Weather History & Observations

Time (PDT) Temp. Dew Point Humidity Pressure Visibility Wind Dir Wind Speed Gust Speed Precip Events Conditions
12:53 AM 53.1 °F 52.0 °F 96% 30.10 in 8.0 mi SW 3.5 mph - N/A   Overcast
1:14 AM 53.6 °F 51.8 °F 94% 30.10 in 6.0 mi WSW 4.6 mph - N/A   Overcast
1:29 AM 53.6 °F 51.8 °F 94% 30.11 in 5.0 mi SW 3.5 mph - N/A   Overcast
1:42 AM 53.6 °F 51.8 °F 94% 30.11 in 10.0 mi SW 3.5 mph - N/A   Overcast
1:53 AM 53.1 °F 52.0 °F 96% 30.11 in 9.0 mi SW 3.5 mph - N/A   Overcast
2:23 AM 53.6 °F 51.8 °F 94% 30.10 in 5.0 mi WSW 3.5 mph - 0.00 in Rain Light Rain
2:43 AM 53.6 °F 51.8 °F 94% 30.10 in 8.0 mi WSW 4.6 mph - 0.01 in   Overcast
2:53 AM 53.1 °F 52.0 °F 96% 30.10 in 10.0 mi SW 3.5 mph - 0.01 in   Overcast
3:19 AM 53.6 °F 51.8 °F 94% 30.10 in 5.0 mi Calm Calm - 0.00 in Rain Light Rain
3:34 AM 53.6 °F 51.8 °F 94% 30.09 in 4.0 mi Calm Calm - 0.00 in Rain Light Rain
3:53 AM 52.0 °F 52.0 °F 100% 30.09 in 4.0 mi Calm Calm - 0.01 in Rain Light Rain
4:53 AM 52.0 °F 52.0 °F 100% 30.09 in 2.0 mi South 4.6 mph - 0.02 in Rain Light Rain
5:05 AM 51.8 °F 51.8 °F 100% 30.09 in 0.8 mi South 3.5 mph - N/A   Overcast
5:14 AM 51.8 °F 51.8 °F 100% 30.09 in 0.2 mi South 4.6 mph - N/A Fog Fog
5:38 AM 51.8 °F 51.8 °F 100% 30.08 in 0.5 mi South 6.9 mph - N/A Fog Fog
5:51 AM 51.8 °F 51.8 °F 100% 30.08 in 2.0 mi South 6.9 mph - N/A   Overcast
5:53 AM 52.0 °F 52.0 °F 100% 30.08 in 4.0 mi South 6.9 mph - N/A   Overcast
6:36 AM 51.8 °F 51.8 °F 100% 30.08 in 10.0 mi Calm Calm - N/A   Overcast
6:45 AM 51.8 °F 51.8 °F 100% 30.07 in 10.0 mi South 3.5 mph - N/A   Overcast
6:53 AM 52.0 °F 52.0 °F 100% 30.07 in 10.0 mi SSW 3.5 mph - N/A   Overcast
7:53 AM 53.1 °F 52.0 °F 96% 30.08 in 5.0 mi Calm Calm - 0.02 in Rain Light Rain
8:53 AM 53.1 °F 52.0 °F 96% 30.08 in 2.0 mi Calm Calm - 0.01 in Rain Light Rain
9:53 AM 53.1 °F 52.0 °F 96% 30.07 in 2.0 mi Calm Calm - 0.00 in   Overcast
10:53 AM 51.1 °F 51.1 °F 100% 30.06 in 2.0 mi NE 4.6 mph - 0.04 in Rain Light Rain
11:53 AM 53.6 °F 51.8 °F 94% 30.04 in 2.0 mi NE 5.8 mph - N/A   Overcast
11:55 AM 53.6 °F 51.8 °F 94% 30.05 in 4.0 mi NE 6.9 mph - N/A   Overcast
12:53 PM 54.0 °F 50.0 °F 86% 30.02 in 4.0 mi NNE 5.8 mph - N/A   Overcast
12:56 PM 53.6 °F 50.0 °F 88% 30.02 in 10.0 mi NNE 5.8 mph - N/A   Overcast
1:53 PM 55.0 °F 50.0 °F 83% 30.00 in 10.0 mi Calm Calm - N/A   Overcast
2:53 PM 55.9 °F 51.1 °F 84% 30.00 in 10.0 mi West 3.5 mph - N/A   Overcast
3:53 PM 55.9 °F 51.1 °F 84% 29.98 in 10.0 mi North 5.8 mph - 0.00 in   Mostly Cloudy
4:53 PM 55.9 °F 50.0 °F 80% 29.95 in 10.0 mi Calm Calm - N/A   Mostly Cloudy
5:53 PM 55.0 °F 50.0 °F 83% 29.94 in 10.0 mi Calm Calm - N/A   Overcast
6:53 PM 54.0 °F 50.0 °F 86% 29.91 in 10.0 mi Calm Calm - N/A   Mostly Cloudy
7:53 PM 54.0 °F 51.1 °F 90% 29.91 in 10.0 mi Calm Calm - N/A   Overcast
8:53 PM 52.0 °F 50.0 °F 93% 29.88 in 10.0 mi Calm Calm - N/A   Clear
9:53 PM 52.0 °F 50.0 °F 93% 29.85 in 10.0 mi Calm Calm - N/A   Partly Cloudy
10:53 PM 53.1 °F 50.0 °F 89% 29.84 in 10.0 mi Calm Calm - N/A   Clear
11:53 PM 51.1 °F 50.0 °F 96% 29.82 in 9.0 mi Calm Calm - N/A   Partly Cloudy